DW2213 Weather Reports


time (UTC)temp
F
wind
direction
speed
knots
gust
knots
rain 1hr
in
rain 24hr
in
rain mn
in
humidity
%
barometer
mb
20260505091305 72 344 4.3 7.8 0.00 0.04 0.00 49 1010.0
20260505090804 71 313 2.6 6.1 0.00 0.05 0.00 50 1010.1
20260505090304 71 251 2.6 6.1 0.00 0.07 0.00 51 1010.0
20260505085804 71 241 3.5 7.8 0.00 0.10 0.00 52 1010.1
20260505085305 71 252 2.6 7.0 0.00 0.16 0.00 50 1010.1
20260505084804 72 323 3.5 7.0 0.00 0.18 0.00 51 1010.2
20260505084305 71 261 4.3 7.0 0.00 0.18 0.00 51 1010.2
20260505083804 70 324 2.6 6.1 0.00 0.18 0.00 52 1010.2
20260505082804 70 264 1.7 6.1 0.00 0.18 0.00 54 1010.2
20260505082305 70 253 4.3 7.8 0.00 0.18 0.00 53 1010.3
20260505081804 70 240 2.6 7.0 0.00 0.18 0.00 54 1010.3
20260505080804 69 241 1.7 6.1 0.00 0.18 0.00 56 1010.3
20260505080305 68 316 2.6 7.8 0.00 0.18 0.00 57 1010.3
20260505075304 68 276 2.6 5.2 0.00 0.18 0.00 57 1010.4
20260505074804 68 353 2.6 6.1 0.00 0.18 0.00 59 1010.4
20260505074304 67 356 2.6 6.1 0.00 0.18 0.00 59 1010.4
20260505073804 67 253 2.6 7.0 0.00 0.18 0.00 61 1010.4
20260505072804 66 253 1.7 4.3 0.00 0.18 0.00 64 1010.4
20260505072305 66 244 2.6 6.1 0.00 0.18 0.00 63 1010.4
20260505071805 66 345 3.5 6.1 0.00 0.18 0.00 64 1010.4
20260505070804 66 281 1.7 7.8 0.00 0.18 0.00 68 1010.4
20260505070304 65 273 3.5 7.0 0.00 0.18 0.00 68 1010.4
20260505065804 65 292 1.7 5.2 0.00 0.18 0.00 70 1010.5
20260505065304 64 322 4.3 7.8 0.00 0.18 0.00 72 1010.4
20260505064805 64 244 1.7 4.3 0.00 0.18 0.00 74 1010.4
20260505063804 63 263 2.6 6.1 0.00 0.18 0.00 81 1010.4
20260505063305 63 247 1.7 5.2 0.00 0.18 0.00 83 1010.3
20260505062804 62 255 1.7 4.3 0.00 0.18 0.00 84 1010.3
20260505062304 62 256 1.7 5.2 0.00 0.18 0.00 85 1010.3
20260505061304 62 256 1.7 4.3 0.00 0.18 0.00 87 1010.2
20260505060804 61 254 1.7 2.6 0.00 0.18 0.00 87 1010.2
20260505060304 61 259 2.6 4.3 0.00 0.18 0.00 88 1010.2
20260505055804 61 254 1.7 5.2 0.00 0.18 0.00 88 1010.2
20260505055304 61 256 2.6 5.2 0.00 0.18 0.00 89 1010.2
20260505054804 61 252 1.7 4.3 0.00 0.18 0.00 89 1010.1
20260505053804 61 248 0.9 2.6 0.00 0.18 0.00 90 1010.2
20260505053304 61 248 1.7 2.6 0.00 0.18 0.00 90 1010.2
20260505052804 61 248 0.0 1.7 0.00 0.18 0.00 90 1010.2
20260505051804 60 246 1.7 4.3 0.00 0.18 0.00 90 1010.1
20260505051304 60 258 0.9 2.6 0.00 0.18 0.00 90 1010.0
20260505050804 61 267 0.9 2.6 0.00 0.18 0.00 90 1010.0
20260505050305 61 261 1.7 2.6 0.00 0.18 0.00 90 1009.9
20260505041304 62 356 0.9 2.6 0.00 0.18 0.00 90 1010.1
20260505040304 62 313 0.9 2.6 0.00 0.18 0.00 90 1010.1
20260505035804 62 356 1.7 2.6 0.00 0.18 0.00 90 1010.1
20260505035304 62 294 0.9 2.6 0.00 0.18 0.00 89 1010.1
20260505034804 62 297 0.0 1.7 0.00 0.18 0.00 89 1010.1
20260505034304 63 296 0.9 1.7 0.00 0.18 0.00 89 1010.1
20260505033804 63 297 0.0 0.9 0.00 0.18 0.00 89 1010.2
20260505033303 63 297 0.0 1.7 0.00 0.18 0.00 89 1010.2
20260505032305 63 299 0.0 2.6 0.00 0.18 0.00 89 1010.2
20260505031804 63 297 0.9 2.6 0.00 0.18 0.00 89 1010.2
20260505031304 63 304 1.7 2.6 0.00 0.18 0.00 89 1010.2
20260505030804 63 310 0.9 1.7 0.00 0.18 0.00 89 1010.3
20260505030304 63 326 0.0 1.7 0.00 0.18 0.00 89 1010.3
20260505025305 63 297 0.0 1.7 0.00 0.18 0.00 89 1010.4
20260505023804 63 299 0.9 1.7 0.00 0.18 0.00 89 1010.4
20260505023303 63 296 0.0 1.7 0.00 0.18 0.00 89 1010.5
20260505021804 63 296 0.0 1.7 0.00 0.18 0.00 89 1010.5
20260505021304 63 314 0.9 2.6 0.00 0.18 0.00 89 1010.4
20260505020804 63 306 0.9 1.7 0.00 0.18 0.00 89 1010.4
20260505020304 63 313 0.0 1.7 0.00 0.18 0.00 89 1010.4
20260505015805 63 309 0.0 0.0 0.00 0.18 0.00 89 1010.4
20260505015304 63 309 0.0 0.9 0.00 0.18 0.00 89 1010.4
20260505014804 63 309 0.0 0.0 0.00 0.18 0.00 89 1010.3
20260505014304 63 309 0.0 0.9 0.00 0.18 0.00 89 1010.3
20260505013804 63 309 0.0 1.7 0.00 0.18 0.00 89 1010.3
20260505013304 63 309 0.0 2.6 0.00 0.18 0.00 88 1010.3
20260505012804 63 312 0.9 2.6 0.00 0.18 0.00 88 1010.3
20260505012304 63 308 0.0 1.7 0.00 0.18 0.00 88 1010.3
20260505011804 63 308 0.0 1.7 0.00 0.18 0.00 88 1010.4
20260505011304 63 307 0.0 0.9 0.00 0.18 0.00 88 1010.4
20260505010804 64 308 0.9 2.6 0.00 0.18 0.00 88 1010.4
20260505010304 64 320 0.9 2.6 0.00 0.18 0.00 88 1010.5
20260505005305 64 311 0.9 2.6 0.00 0.18 0.00 88 1010.6
20260505004804 64 313 0.9 2.6 0.00 0.18 0.00 87 1010.7
20260505003804 64 313 0.9 2.6 0.00 0.18 0.00 87 1010.8
20260505002804 64 316 0.0 1.7 0.00 0.18 0.00 87 1010.8
20260505002304 64 315 0.0 0.0 0.00 0.18 0.00 86 1010.8
20260505001803 65 315 0.0 0.0 0.00 0.18 0.00 86 1010.8
20260505001303 65 315 0.0 0.9 0.00 0.18 0.00 86 1010.9
20260505000303 65 313 0.9 1.7 0.00 0.18 0.00 86 1011.0
20260504235805 66 314 0.9 1.7 0.00 0.18 0.00 86 1011.0
20260504234803 66 337 0.9 2.6 0.00 0.18 0.00 86 1011.0
20260504233804 66 332 0.9 2.6 0.00 0.18 0.00 86 1011.0
20260504233304 66 333 0.9 2.6 0.00 0.18 0.00 86 1011.0
20260504232804 66 332 0.9 4.3 0.00 0.18 0.00 86 1011.0
20260504232304 66 21 0.9 1.7 0.00 0.18 0.00 86 1011.0
20260504231805 66 22 1.7 2.6 0.00 0.18 0.00 86 1011.0
20260504230804 66 22 0.9 2.6 0.00 0.18 0.00 86 1011.0
20260504230304 66 22 0.9 2.6 0.00 0.18 0.00 86 1011.0
20260504225804 67 23 1.7 4.3 0.00 0.18 0.00 86 1011.0
20260504225304 66 27 1.7 2.6 0.00 0.18 0.00 86 1010.9
20260504224804 66 23 1.7 2.6 0.00 0.18 0.00 87 1011.0
20260504224304 66 27 1.7 2.6 0.00 0.18 0.00 87 1011.0
20260504223804 66 27 0.9 4.3 0.00 0.18 0.00 87 1010.9
20260504223304 66 22 1.7 2.6 0.00 0.18 0.00 87 1010.9
20260504222804 67 24 2.6 5.2 0.00 0.18 0.00 87 1011.0
20260504222305 67 348 2.6 5.2 0.00 0.18 0.00 87 1010.9
20260504221804 67 57 0.9 2.6 0.00 0.18 0.00 88 1010.8
20260504221304 67 58 2.6 2.6 0.00 0.18 0.00 88 1010.8
20260504220818 67 57 0.9 2.6 0.00 0.18 0.00 87 1010.8
20260504220304 67 57 0.0 2.6 0.00 0.18 0.00 88 1010.8
20260504215804 67 58 1.7 2.6 0.00 0.18 0.18 88 1010.8
20260504215305 67 57 1.7 2.6 0.00 0.18 0.18 88 1010.7
20260504214804 67 57 0.0 0.0 0.00 0.18 0.18 88 1010.7
20260504214304 67 57 0.0 1.7 0.00 0.18 0.18 87 1010.8
20260504213804 67 57 0.0 2.6 0.00 0.18 0.18 88 1010.8
20260504213304 67 57 0.0 2.6 0.00 0.18 0.18 87 1010.7
20260504212803 67 58 0.9 4.3 0.00 0.18 0.18 87 1010.7
20260504211803 67 56 0.9 2.6 0.00 0.18 0.18 87 1010.6
20260504211304 67 56 1.7 2.6 0.00 0.18 0.18 87 1010.6
20260504210303 67 60 1.7 2.6 0.00 0.18 0.18 86 1010.6
20260504205304 68 59 1.7 4.3 0.00 0.18 0.18 86 1010.4
20260504204803 68 61 0.9 2.6 0.00 0.18 0.18 86 1010.4
20260504204304 68 50 0.9 2.6 0.00 0.18 0.18 86 1010.3
20260504203803 68 40 1.7 4.3 0.00 0.18 0.18 86 1010.2
20260504203304 68 36 1.7 2.6 0.00 0.18 0.18 86 1010.1
20260504202804 68 38 1.7 2.6 0.00 0.18 0.18 86 1010.0
20260504202304 68 40 1.7 5.2 0.00 0.18 0.18 85 1010.0
20260504201804 68 54 0.9 4.3 0.00 0.18 0.18 85 1009.9
20260504201304 68 49 2.6 2.6 0.00 0.18 0.18 85 1009.9
20260504200804 68 53 0.9 2.6 0.00 0.18 0.18 85 1009.7
20260504200304 68 44 0.9 4.3 0.00 0.18 0.18 85 1009.7
20260504195804 68 53 1.7 2.6 0.00 0.18 0.18 85 1009.6
20260504195304 68 53 1.7 5.2 0.00 0.18 0.18 85 1009.5
20260504194303 68 57 3.5 7.8 0.00 0.18 0.18 84 1009.2
20260504193804 68 34 4.3 7.8 0.00 0.18 0.18 84 1009.2
20260504193304 68 39 5.2 10.4 0.00 0.18 0.18 84 1009.1
20260504192304 68 30 4.3 8.7 0.00 0.18 0.18 83 1009.0
20260504191303 69 37 5.2 12.2 0.00 0.18 0.18 82 1008.8
20260504190804 69 17 5.2 8.7 0.00 0.18 0.18 81 1008.8
20260504190303 70 3 6.1 10.4 0.00 0.18 0.18 80 1008.7
20260504185805 71 9 7.0 14.8 0.00 0.18 0.18 78 1008.6
20260504185304 72 1 6.1 11.3 0.00 0.18 0.18 77 1008.5
20260504184804 72 10 4.3 8.7 0.00 0.18 0.18 76 1008.3
20260504184303 73 2 5.2 7.8 0.00 0.18 0.18 75 1008.2
20260504183804 73 147 1.7 4.3 0.00 0.18 0.18 74 1008.0
20260504183304 73 148 0.0 0.0 0.00 0.18 0.18 74 1007.9
20260504182304 73 148 1.7 5.2 0.00 0.18 0.18 75 1007.7
20260504181803 73 148 2.6 5.2 0.00 0.18 0.18 75 1007.6
20260504181304 73 148 2.6 5.2 0.00 0.18 0.18 76 1007.6
20260504180804 73 146 4.3 5.2 0.00 0.18 0.18 76 1007.5
20260504180304 73 146 3.5 5.2 0.00 0.18 0.18 76 1007.4
20260504175804 73 134 5.2 8.7 0.00 0.18 0.18 76 1007.4
20260504175304 73 141 5.2 7.0 0.00 0.18 0.18 75 1007.4
20260504174803 74 157 5.2 8.7 0.00 0.18 0.18 75 1007.5
20260504174305 74 140 5.2 7.0 0.00 0.18 0.18 74 1007.5
20260504173804 74 139 4.3 6.1 0.00 0.18 0.18 75 1007.5
20260504172305 74 140 6.1 10.4 0.00 0.18 0.18 75 1007.4
20260504170805 74 63 5.2 10.4 0.00 0.18 0.18 73 1007.5
20260504170304 74 118 5.2 10.4 0.00 0.18 0.18 73 1007.5
20260504150305 74 94 7.8 12.2 0.00 0.18 0.18 72 1008.1
20260504141305 74 130 5.2 12.2 0.00 0.18 0.18 71 1008.6
20260504140804 74 56 6.1 11.3 0.00 0.18 0.18 71 1008.7
20260504140304 74 85 5.2 10.4 0.00 0.18 0.18 72 1008.8
20260504130305 72 156 5.2 8.7 0.00 0.18 0.18 78 1009.7
20260504120305 69 103 3.5 6.1 0.01 0.18 0.18 86 1010.4
20260504110304 67 166 0.0 0.9 0.01 0.17 0.17 88 1011.1